User: anonymous   Login
Location: Wildcat Hills Observatory
(41.6350°N, 103.6812°W)
Time: 14:48:47
(UTC-07:00)
Language:

Cosmos 1634 Rocket - Orbit

View from above orbital plane
View from above orbital plane
View from above satellite
View from above satellite

Ground track
Ground track

The orbit data is extracted from the following two-line orbital elements,

1 15598U 85022B   16338.22924784  .00000060  00000-0  46188-4 0  9991
2 15598  82.9387 252.7451 0021066 299.7412 168.2243 13.76557779593507
Epoch (UTC): 03 December 2016 05:30:07
Eccentricity: 0.0021066
inclination: 82.9387°
perigee height: 960 km
apogee height: 991 km
right ascension of ascending node: 252.7451°
argument of perigee: 299.7412°
revolutions per day: 13.76557779
mean anomaly at epoch: 168.2243°
orbit number at epoch: 59350

The dashed part of the orbit path shows where the satellite is in the earth's shadow,  

DLR